[[{"header":{"parameterUnit":"m.s-1","parameterCategory":1,"la1":30.2991,"la2":30.254,"lo1":-89.0895,"lo2":-89.0444,"dy":0.0017,"dx":0.0017,"nx":28,"ny":28,"refTime":"2024-03-23T03:00:00:Z","depth":0,"parameterNumber":2,"parameterNumberName":"U-component_of_WINDS"},"data":[0,0,0,0,0,0,0,0,0,0,0,0,0,0,0,0,0,0,0,0,0,0,0,0,0,0,0,0,0,0,0,0,0,0,0,0,0,0,0,0,0,0,0,0,0,0,0,0,0,0,0,0,0,0,0,0,0,0,4.7389,4.739,0,4.7454,4.7455,4.7456,4.7397,4.7395,4.7393,4.739,4.7457,4.746,4.7464,0,0,0,0,0,0,0,0,0,0,0,0,0,4.7215,4.7218,4.7389,4.739,4.7391,4.7454,4.7455,4.7456,4.7398,4.7395,4.7392,4.7389,4.7455,4.746,4.7465,0,0,0,0,0,0,0,0,0,0,0,0,0,4.7286,4.722,4.7389,4.7369,4.7368,4.7454,4.7455,4.7456,4.7398,4.7395,4.7391,4.7388,4.7454,4.746,4.7465,4.7574,0,0,4.7484,4.7486,0,0,0,0,0,0,0,0,4.7282,4.7293,4.7371,4.7371,4.737,4.7414,4.7418,4.7496,4.7399,4.7387,4.739,4.7386,4.7445,4.7452,4.7472,4.7577,4.758,4.7484,4.7488,4.749,4.7492,0,0,0,0,0,0,0,4.7278,4.729,4.7415,4.7373,4.7372,4.7358,4.7364,4.7432,4.7435,4.7388,4.7384,4.7392,4.7444,4.7466,4.7473,4.7581,4.7484,4.7489,4.7493,4.7495,4.778,4.7783,0,0,0,0,0,0,4.7275,4.7286,4.7413,4.7417,4.7316,4.7364,4.7371,4.7404,4.7434,4.7436,4.7395,4.7389,4.7458,4.7466,4.7475,4.7605,4.749,4.7496,4.7499,4.7776,4.7781,4.7785,0,0,0,0,0,0,4.7271,4.7286,4.741,4.735,4.7365,4.737,4.7408,4.7407,4.7429,4.744,4.744,4.7417,4.7455,4.7467,4.755,4.7606,4.7499,4.7504,4.7771,4.7777,4.7783,4.7865,0,0,0,0,0,0,4.7266,4.7286,4.7327,4.7352,4.7369,4.7484,4.7411,4.7411,4.7439,4.7432,4.7461,4.7462,4.7453,4.7542,4.7556,4.7613,4.7509,4.7766,4.7774,4.7781,4.7858,4.7873,4.7887,0,0,0,0,0,4.726,4.7347,4.7329,4.7345,4.742,4.7488,4.7497,4.7486,4.7444,4.7485,4.7493,4.7461,4.7598,4.7551,4.7566,4.7626,4.7762,4.7772,4.778,4.7851,4.787,4.7887,0,0,0,0,0,0,4.7327,4.735,4.733,4.7427,4.7456,4.7478,4.7529,4.7506,4.7547,4.7539,4.7522,4.7529,4.7618,4.763,4.7577,4.7733,4.7673,4.7686,4.7722,4.774,4.7755,4.775,4.7514,0,0,0,0,0,4.7354,4.7407,4.7423,4.7507,4.7523,4.7524,4.7553,4.7542,4.7571,4.7583,4.7596,4.7626,4.7675,4.7708,4.7755,4.7859,4.7865,4.7908,4.7923,4.7935,4.7946,4.8003,4.8023,4.7814,4.7814,4.7814,0,0,4.7408,4.7427,4.7461,4.7521,4.7542,4.7598,4.7535,4.7596,4.7637,4.7592,4.7672,4.7683,4.7715,4.781,4.7852,4.7823,4.8005,4.7946,4.7955,4.796,4.8015,4.8034,4.8052,4.782,4.7819,4.7818,0,0,4.7536,4.7555,4.7628,4.7651,4.7684,4.7684,4.7702,4.7728,4.7733,4.7814,4.7781,4.783,4.7916,4.794,4.7964,4.8104,4.8076,4.8119,4.8196,4.8252,4.8268,4.8283,4.8334,4.8352,4.813,4.813,4.813,0,4.7599,4.7682,4.7668,4.7733,4.7761,4.7723,4.7797,4.782,4.7866,4.7887,4.7853,4.7961,4.7979,4.808,4.8115,4.8135,4.8155,4.8116,4.8267,4.8282,4.8295,4.8343,4.8362,4.8135,4.8135,4.8134,4.8134,0,4.7759,4.7817,4.7872,4.7919,4.7953,4.8022,4.8019,4.8055,4.8042,4.8046,4.8129,4.815,4.8201,4.8224,4.821,4.8324,4.8304,4.8269,4.8209,4.832,4.8365,4.8383,4.8143,4.8141,4.8139,4.8138,0,0,4.793,4.797,4.799,4.8012,4.8046,4.8091,4.8159,4.8209,4.8241,4.8274,4.8331,4.8405,4.8374,4.8401,4.839,4.844,4.855,4.8399,4.8399,4.8427,4.8677,4.8704,4.8726,4.8532,4.8536,4.8538,4.8675,0,4.806,4.8178,4.8169,4.8281,4.8335,4.83,4.836,4.8387,4.8394,4.8441,4.8447,4.8501,4.8454,4.847,4.8518,4.8527,4.86,4.8517,4.8586,4.8588,4.8579,4.8749,4.8777,4.8905,4.8692,4.8695,4.8698,0,4.8228,4.8268,4.8386,4.8413,4.8436,4.8489,4.8535,4.858,4.8612,4.8613,4.8644,4.8625,4.8694,4.8633,4.8728,4.8671,4.8699,4.8708,4.8713,4.8719,4.865,4.876,4.8945,4.8964,4.8725,4.8723,4.8721,0,4.8342,4.8426,4.8507,4.8527,4.8561,4.8599,4.8615,4.8643,4.8674,4.8714,4.8735,4.8782,4.8809,4.8846,4.8841,4.8797,4.8939,4.8876,4.8942,4.8943,4.8974,4.8972,4.9166,4.8991,4.8991,4.899,4.899,0,4.8489,4.8562,4.856,4.861,4.8691,4.868,4.8761,4.8773,4.8798,4.885,4.8823,4.8873,4.8863,4.8913,4.8909,4.8989,4.9001,4.9004,4.9003,4.9007,4.9007,4.9025,4.9017,4.8995,4.8994,4.8993,4.8992,0,4.863,4.8631,4.8718,4.8744,4.8752,4.8811,4.8833,4.8881,4.8885,4.8952,4.8967,4.8974,4.9031,4.903,4.9095,4.9092,4.9191,4.9179,4.9181,4.9179,4.9245,4.9239,4.9458,4.9486,4.9292,4.9294,4.9296,0,4.8724,4.878,4.8812,4.8845,4.8864,4.8918,4.895,4.8941,4.8976,4.9017,4.906,4.9115,4.9158,4.9251,4.9262,4.9312,4.9301,4.9375,4.9308,4.9312,4.9303,4.93,4.9306,4.9388,4.939,4.9391,4.9393,0,4.8891,4.8889,4.8936,4.8985,4.9024,4.9062,4.9096,4.9125,4.912,4.916,4.9219,4.9253,4.932,4.9375,4.9423,4.944,4.9416,4.9414,4.9432,4.9437,4.9436,4.9439,4.9217,4.9409,4.9407,4.9406,4.9405,4.9405,4.9012,4.9061,4.9091,4.9145,4.9171,4.9204,4.925,4.9261,4.931,4.9364,4.9356,4.9422,4.9453,4.9515,4.9536,4.9588,4.9562,4.9588,4.9594,4.9601,4.9609,4.9428,4.9596,4.9596,4.9596,4.9595,4.9595,0,4.9178,4.9196,4.9246,4.9296,4.9339,4.9313,4.935,4.9388,4.9447,4.9478,4.9521,4.9589,4.9643,4.9659,4.9711,4.9749,4.974,4.9763,4.9761,4.9765,4.9629,4.9608,4.977,4.977,4.977,4.977,4.977,4.977,4.927,4.9351,4.9353,4.9447,4.9465,4.9529,4.9553,4.9584,4.9609,4.9686,4.9731,4.9741,4.9766,4.982,4.9868,4.9872,4.9892,4.9921,4.992,4.9792,4.9774,4.9758,4.9738,4.9925,4.9925,5.0052,5.0053,5.0054]},{"header":{"parameterUnit":"m.s-1","parameterCategory":1,"la1":30.2991,"la2":30.254,"lo1":-89.0895,"lo2":-89.0444,"dy":0.0017,"dx":0.0017,"nx":28,"ny":28,"refTime":"2024-03-23T03:00:00:Z","depth":0,"parameterNumber":3,"parameterNumberName":"V-component_of_WINDS"},"data":[0,0,0,0,0,0,0,0,0,0,0,0,0,0,0,0,0,0,0,0,0,0,0,0,0,0,0,0,0,0,0,0,0,0,0,0,0,0,0,0,0,0,0,0,0,0,0,0,0,0,0,0,0,0,0,0,0,0,-4.638,-4.6381,0,-4.6464,-4.6465,-4.6466,-4.643,-4.6428,-4.6426,-4.6424,-4.6507,-4.6511,-4.6515,0,0,0,0,0,0,0,0,0,0,0,0,0,-4.6186,-4.619,-4.638,-4.6381,-4.6382,-4.6464,-4.6465,-4.6466,-4.6431,-4.6428,-4.6426,-4.6423,-4.6506,-4.6511,-4.6516,0,0,0,0,0,0,0,0,0,0,0,0,0,-4.627,-4.6191,-4.638,-4.6374,-4.6375,-4.6464,-4.6465,-4.6467,-4.6431,-4.6428,-4.6425,-4.6422,-4.6504,-4.651,-4.6516,-4.6615,0,0,-4.6535,-4.6538,0,0,0,0,0,0,0,0,-4.6266,-4.6278,-4.6374,-4.6375,-4.6375,-4.6434,-4.6427,-4.6516,-4.6432,-4.641,-4.6424,-4.6421,-4.6485,-4.6493,-4.6515,-4.6619,-4.6623,-4.6536,-4.654,-4.6542,-4.6544,0,0,0,0,0,0,0,-4.626,-4.6274,-4.6413,-4.6375,-4.6376,-4.6367,-4.6375,-4.6444,-4.6463,-4.6411,-4.6409,-4.6419,-4.6485,-4.6509,-4.6517,-4.6624,-4.6536,-4.6541,-4.6545,-4.6547,-4.6814,-4.6817,0,0,0,0,0,0,-4.6254,-4.6269,-4.641,-4.6416,-4.6312,-4.6373,-4.6382,-4.6418,-4.6462,-4.6466,-4.6422,-4.6417,-4.65,-4.651,-4.6519,-4.6638,-4.6542,-4.6548,-4.6551,-4.681,-4.6814,-4.6818,0,0,0,0,0,0,-4.625,-4.6267,-4.6407,-4.6342,-4.6359,-4.6379,-4.642,-4.6421,-4.6445,-4.6471,-4.6473,-4.6443,-4.6498,-4.6511,-4.6592,-4.6641,-4.6551,-4.6556,-4.6806,-4.6812,-4.6816,-4.6877,0,0,0,0,0,0,-4.6245,-4.6266,-4.6304,-4.6343,-4.6363,-4.6479,-4.6423,-4.6425,-4.6456,-4.6451,-4.6491,-4.6495,-4.6497,-4.6583,-4.6598,-4.6647,-4.6561,-4.6802,-4.6809,-4.6815,-4.687,-4.6883,-4.6894,0,0,0,0,0,-4.6238,-4.6317,-4.6306,-4.6324,-4.6411,-4.6482,-4.6493,-4.6494,-4.6461,-4.6499,-4.6515,-4.6494,-4.6633,-4.6592,-4.6608,-4.666,-4.6799,-4.6807,-4.6814,-4.6865,-4.6881,-4.6894,0,0,0,0,0,0,-4.6282,-4.6322,-4.631,-4.6404,-4.644,-4.6476,-4.6524,-4.651,-4.6556,-4.6549,-4.6547,-4.6557,-4.6641,-4.6659,-4.6612,-4.6758,-4.6711,-4.6722,-4.6744,-4.6759,-4.677,-4.6764,-4.6566,0,0,0,0,0,-4.6303,-4.6358,-4.639,-4.6469,-4.6488,-4.6503,-4.6534,-4.6532,-4.6569,-4.6583,-4.6605,-4.6641,-4.6693,-4.6727,-4.6776,-4.6873,-4.6881,-4.6917,-4.6929,-4.6938,-4.6948,-4.7001,-4.7018,-4.6843,-4.6843,-4.6843,0,0,-4.6346,-4.6375,-4.6409,-4.6479,-4.6506,-4.6563,-4.6516,-4.6578,-4.662,-4.6592,-4.6671,-4.6688,-4.6728,-4.6818,-4.6858,-4.6835,-4.6998,-4.6948,-4.6956,-4.696,-4.7011,-4.7027,-4.7042,-4.6848,-4.6847,-4.6847,0,0,-4.6454,-4.6481,-4.6551,-4.658,-4.6622,-4.6632,-4.6649,-4.6687,-4.6698,-4.6777,-4.6758,-4.6808,-4.6897,-4.6926,-4.6952,-4.7073,-4.7055,-4.7089,-4.715,-4.7202,-4.7216,-4.7228,-4.7271,-4.7287,-4.7098,-4.7098,-4.7099,0,-4.6501,-4.6587,-4.6588,-4.6652,-4.6683,-4.6663,-4.6733,-4.6761,-4.6817,-4.6839,-4.6812,-4.6925,-4.695,-4.7046,-4.7076,-4.7098,-4.7117,-4.7084,-4.7214,-4.7226,-4.7238,-4.7279,-4.7295,-4.7102,-4.7102,-4.7101,-4.7101,0,-4.6644,-4.6704,-4.6755,-4.6811,-4.6848,-4.6915,-4.6926,-4.6963,-4.6958,-4.697,-4.7051,-4.7081,-4.7136,-4.7159,-4.7154,-4.7255,-4.7239,-4.7214,-4.7166,-4.7258,-4.7297,-4.7312,-4.7108,-4.7106,-4.7105,-4.7104,0,0,-4.678,-4.6838,-4.6856,-4.6882,-4.6928,-4.6974,-4.704,-4.7095,-4.7127,-4.7167,-4.7222,-4.7299,-4.7276,-4.7306,-4.7304,-4.735,-4.7444,-4.7318,-4.7319,-4.7341,-4.7557,-4.7576,-4.7594,-4.7432,-4.7435,-4.7438,-4.7554,0,-4.6892,-4.7008,-4.7012,-4.7118,-4.7173,-4.7155,-4.7213,-4.7247,-4.7261,-4.7309,-4.7323,-4.7378,-4.7343,-4.7362,-4.7406,-4.7423,-4.7487,-4.7414,-4.7483,-4.7485,-4.7473,-4.7614,-4.7634,-4.7743,-4.7569,-4.7571,-4.7573,0,-4.7037,-4.7083,-4.7195,-4.7234,-4.7258,-4.7309,-4.736,-4.7407,-4.7446,-4.7452,-4.7487,-4.7479,-4.7546,-4.7497,-4.7589,-4.7539,-4.7568,-4.758,-4.7584,-4.759,-4.7535,-4.7624,-4.7777,-4.7793,-4.7597,-4.7595,-4.7593,0,-4.7125,-4.7215,-4.7294,-4.7317,-4.7364,-4.7401,-4.7423,-4.7458,-4.7492,-4.7536,-4.7558,-4.7609,-4.7637,-4.7677,-4.7682,-4.7646,-4.7775,-4.7726,-4.7782,-4.7782,-4.781,-4.7808,-4.7969,-4.7828,-4.7828,-4.7828,-4.7828,0,-4.7249,-4.7318,-4.7335,-4.7383,-4.7461,-4.7464,-4.754,-4.7559,-4.7591,-4.7642,-4.7629,-4.7678,-4.7683,-4.7733,-4.7738,-4.7813,-4.7826,-4.7833,-4.7833,-4.7834,-4.7833,-4.7852,-4.7845,-4.7832,-4.7831,-4.783,-4.783,0,-4.7361,-4.7374,-4.7459,-4.7498,-4.751,-4.7565,-4.7598,-4.7644,-4.7657,-4.7722,-4.7738,-4.7758,-4.7816,-4.7826,-4.7894,-4.7897,-4.7988,-4.7981,-4.7975,-4.7974,-4.803,-4.8025,-4.8209,-4.8233,-4.8077,-4.8078,-4.8079,0,-4.7438,-4.7492,-4.7537,-4.7571,-4.7595,-4.765,-4.7684,-4.7689,-4.7725,-4.7774,-4.7815,-4.7872,-4.7918,-4.8011,-4.8031,-4.8083,-4.8077,-4.8138,-4.8085,-4.8084,-4.8078,-4.8075,-4.808,-4.8148,-4.815,-4.8151,-4.8153,0,-4.7575,-4.758,-4.763,-4.7684,-4.7725,-4.7767,-4.7807,-4.7835,-4.7846,-4.7887,-4.7947,-4.7983,-4.8053,-4.811,-4.8162,-4.8183,-4.817,-4.817,-4.8185,-4.8186,-4.8181,-4.8185,-4.8003,-4.8165,-4.8164,-4.8163,-4.8162,-4.8162,-4.7673,-4.7719,-4.7759,-4.7816,-4.7846,-4.7884,-4.793,-4.7949,-4.8,-4.8058,-4.8058,-4.8124,-4.8161,-4.823,-4.8255,-4.8306,-4.8287,-4.8309,-4.8315,-4.8321,-4.8326,-4.8173,-4.8316,-4.8315,-4.8315,-4.8315,-4.8315,0,-4.7809,-4.7834,-4.7886,-4.7943,-4.7988,-4.7972,-4.8016,-4.8054,-4.8112,-4.8149,-4.8195,-4.8265,-4.832,-4.8345,-4.8399,-4.8435,-4.8431,-4.8449,-4.8447,-4.8452,-4.8341,-4.8322,-4.8452,-4.8452,-4.8452,-4.8452,-4.8452,-4.8452,-4.7885,-4.7964,-4.7973,-4.8067,-4.8091,-4.8156,-4.8183,-4.8217,-4.8247,-4.8325,-4.8372,-4.8388,-4.842,-4.8477,-4.8527,-4.8533,-4.8553,-4.8575,-4.8578,-4.8473,-4.8459,-4.8446,-4.8428,-4.8579,-4.858,-4.8685,-4.8686,-4.8687]}]]